Preston, MN

12:09 AM CDT on August 23, 2017 (GMT -0500)
Preston

Weather History for KFKA - December, 2011

Change the Weather History Date:

Saturday, December 24, 2011

  Actual Average (KRST) Record (KRST)
Temperature  
Mean Temperature 32 °F -  
Max Temperature 42 °F 20 °F 41 °F (1953)
Min Temperature 21 °F 5 °F -26 °F (1983)
Degree Days  
Heating Degree Days 34    
Moisture  
Dew Point 23 °F    
Average Humidity 68    
Maximum Humidity 86    
Minimum Humidity 53    
Precipitation  
Precipitation 0.00 in - - ()
Sea Level Pressure  
Sea Level Pressure 30.12 in    
Wind  
Wind Speed 10 mph (WSW)    
Max Wind Speed 17 mph    
Max Gust Speed 26 mph    
Visibility 10 miles    
Events      
Averages and records for this station are not official NWS values.
T = Trace of Precipitation, MM = Missing Value Source: NWS Daily Summary

Daily Weather History Graph

Daily Weather History Graph

Search for Another Location

Airport or City:

Trip Planner

Search our weather history database for the weather conditions in past years. The results will help you decide how hot, cold, wet, or windy it might be!

Date:

Astronomy

Dec. 24, 2011 Rise Set
Actual Time 7:40 AM CST 4:36 PM CST
Civil Twilight 7:07 AM CST 5:09 PM CST
Nautical Twilight 6:31 AM CST 5:45 PM CST
Astronomical Twilight 5:56 AM CST 6:20 PM CST
Moon 7:28 AM CST (12/24) 4:50 PM CST (12/24)
Length of Visible Light 10h 01m
Length of Day
8h 55m
New Moon, 0% of the Moon is Illuminated
Dec 24
New Moon
Dec 24
New
Jan 1
First Quarter
Jan 9
Full
Jan 16
Last Quarter

Hourly Weather History & Observations

Time (CST) Temp. Windchill Dew Point Humidity Pressure Visibility Wind Dir Wind Speed Gust Speed Precip Events Conditions
12:12 AM 25.5 °F 16.9 °F 19.9 °F 79% 30.15 in 10.0 mi West 8.1 mph - N/A   Clear
12:32 AM 25.7 °F 18.0 °F 19.9 °F 79% 30.15 in 10.0 mi West 6.9 mph - N/A   Clear
12:52 AM 24.8 °F 16.9 °F 19.4 °F 80% 30.15 in 10.0 mi West 6.9 mph - N/A   Clear
1:12 AM 23.9 °F 15.8 °F 19.0 °F 82% 30.15 in 10.0 mi West 6.9 mph - N/A   Clear
1:32 AM 24.6 °F 16.7 °F 19.4 °F 81% 30.15 in 10.0 mi West 6.9 mph - N/A   Clear
1:52 AM 23.2 °F 16.0 °F 18.5 °F 82% 30.16 in 10.0 mi WSW 5.8 mph - N/A   Clear
2:52 AM 23.2 °F 17.2 °F 18.3 °F 82% 30.17 in 10.0 mi SSW 4.6 mph - N/A   Clear
3:12 AM 21.9 °F 14.5 °F 18.3 °F 86% 30.17 in 10.0 mi SSW 5.8 mph - N/A   Clear
3:33 AM 21.6 °F 14.0 °F 17.8 °F 85% 30.18 in 10.0 mi SW 5.8 mph - N/A   Clear
3:53 AM 21.9 °F 17.2 °F 18.1 °F 85% 30.18 in 10.0 mi SW 3.5 mph - N/A   Clear
4:32 AM 24.3 °F 18.4 °F 19.6 °F 82% 30.18 in 10.0 mi SW 4.6 mph - N/A   Clear
4:52 AM 21.2 °F 12.6 °F 17.6 °F 86% 30.16 in 10.0 mi SSW 6.9 mph - N/A   Clear
5:12 AM 22.3 °F 12.2 °F 18.5 °F 85% 30.15 in 10.0 mi SSW 9.2 mph - N/A   Clear
5:32 AM 23.2 °F 14.1 °F 18.9 °F 84% 30.16 in 10.0 mi SSW 8.1 mph - N/A   Clear
5:52 AM 22.8 °F 12.9 °F 18.3 °F 83% 30.15 in 10.0 mi SSW 9.2 mph - N/A   Clear
6:13 AM 23.9 °F 12.9 °F 19.0 °F 82% 30.16 in 10.0 mi SW 11.5 mph - N/A   Clear
6:32 AM 23.7 °F 14.0 °F 18.5 °F 80% 30.16 in 10.0 mi SW 9.2 mph - N/A   Clear
6:52 AM 23.7 °F 13.3 °F 18.9 °F 82% 30.16 in 10.0 mi SSW 10.4 mph - N/A   Clear
7:12 AM 23.9 °F 14.2 °F 19.0 °F 82% 30.15 in 10.0 mi SSW 9.2 mph - N/A   Clear
7:32 AM 23.9 °F 14.2 °F 19.2 °F 82% 30.14 in 10.0 mi SSW 9.2 mph - N/A   Clear
7:52 AM 25.5 °F 14.3 °F 20.3 °F 81% 30.14 in 10.0 mi SSW 12.7 mph - N/A   Clear
8:12 AM 25.7 °F 15.1 °F 20.1 °F 79% 30.14 in 10.0 mi SSW 11.5 mph - N/A   Clear
8:32 AM 27.1 °F 16.4 °F 20.8 °F 77% 30.14 in 10.0 mi SSW 12.7 mph - N/A   Clear
8:52 AM 27.5 °F 16.3 °F 21.2 °F 77% 30.14 in 10.0 mi SW 13.8 mph 18.4 mph N/A   Clear
9:12 AM 28.8 °F 17.5 °F 21.9 °F 76% 30.15 in 10.0 mi SW 15.0 mph - N/A   Clear
9:32 AM 29.7 °F 19.6 °F 22.6 °F 75% 30.15 in 10.0 mi SW 12.7 mph - N/A   Clear
9:52 AM 32.0 °F 23.0 °F 23.5 °F 71% 30.15 in 10.0 mi SSW 11.5 mph 17.3 mph N/A   Clear
10:12 AM 32.9 °F 23.7 °F 24.3 °F 71% 30.13 in 10.0 mi SSW 12.7 mph 19.6 mph N/A   Clear
10:52 AM 37.6 °F 28.4 °F 24.8 °F 60% 30.11 in 10.0 mi SW 16.1 mph 20.7 mph N/A   Clear
11:12 AM 38.8 °F 29.7 °F 23.9 °F 55% 30.11 in 10.0 mi WSW 17.3 mph 26.5 mph N/A   Clear
11:53 AM 38.8 °F 29.7 °F 25.2 °F 58% 30.09 in 10.0 mi West 17.3 mph 21.9 mph N/A   Clear
12:12 PM 39.2 °F 30.8 °F 25.9 °F 59% 30.09 in 10.0 mi WSW 15.0 mph 24.2 mph N/A   Clear
12:32 PM 40.1 °F 32.4 °F 26.8 °F 59% 30.09 in 10.0 mi WSW 13.8 mph 21.9 mph N/A   Clear
12:52 PM 41.0 °F 33.5 °F 27.0 °F 57% 30.08 in 10.0 mi West 13.8 mph - N/A   Clear
1:13 PM 42.1 °F 36.6 °F 27.5 °F 56% 30.08 in 10.0 mi West 9.2 mph - N/A   Clear
1:32 PM 41.9 °F 35.0 °F 26.6 °F 55% 30.07 in 10.0 mi West 12.7 mph - N/A   Clear
1:52 PM 41.9 °F 34.6 °F 26.2 °F 54% 30.07 in 10.0 mi WSW 13.8 mph - N/A   Clear
2:12 PM 42.6 °F 34.6 °F 27.0 °F 54% 30.07 in 10.0 mi West 17.3 mph 21.9 mph N/A   Clear
2:33 PM 42.3 °F 35.1 °F 26.6 °F 54% 30.07 in 10.0 mi West 13.8 mph 20.7 mph N/A   Clear
3:12 PM 42.1 °F 34.5 °F 26.8 °F 55% 30.09 in 10.0 mi West 15.0 mph 21.9 mph N/A   Clear
3:32 PM 41.9 °F 34.6 °F 27.0 °F 55% 30.09 in 10.0 mi West 13.8 mph 19.6 mph N/A   Clear
3:52 PM 41.5 °F 35.9 °F 27.0 °F 56% 30.09 in 10.0 mi WSW 9.2 mph - N/A   Clear
4:12 PM 41.0 °F 35.2 °F 27.1 °F 58% 30.09 in 10.0 mi WSW 9.2 mph - N/A   Clear
4:32 PM 40.1 °F 32.7 °F 27.1 °F 60% 30.09 in 10.0 mi WSW 12.7 mph 17.3 mph N/A   Clear
4:53 PM 39.9 °F 32.9 °F 27.5 °F 61% 30.09 in 10.0 mi WSW 11.5 mph - N/A   Clear
5:12 PM 39.7 °F 33.7 °F 27.5 °F 62% 30.09 in 10.0 mi WSW 9.2 mph - N/A   Clear
5:32 PM 39.6 °F 32.5 °F 27.5 °F 62% 30.09 in 10.0 mi WSW 11.5 mph - N/A   Clear
5:52 PM 40.1 °F 33.6 °F 27.7 °F 61% 30.09 in 10.0 mi WSW 10.4 mph - N/A   Clear
6:12 PM 40.5 °F 34.1 °F 27.9 °F 61% 30.09 in 10.0 mi WSW 10.4 mph - N/A   Clear
6:32 PM 41.0 °F 34.3 °F 28.0 °F 60% 30.10 in 10.0 mi WSW 11.5 mph - N/A   Scattered Clouds
6:52 PM 41.4 °F 34.0 °F 27.5 °F 58% 30.08 in 10.0 mi WSW 13.8 mph 18.4 mph N/A   Scattered Clouds
7:12 PM 41.9 °F 34.3 °F 27.5 °F 57% 30.08 in 10.0 mi WSW 15.0 mph - N/A   Clear
7:32 PM 42.1 °F 34.5 °F 27.0 °F 55% 30.07 in 10.0 mi WSW 15.0 mph - N/A   Scattered Clouds
7:53 PM 42.1 °F 33.9 °F 27.1 °F 55% 30.07 in 10.0 mi WSW 17.3 mph 23.0 mph N/A   Scattered Clouds
8:12 PM 42.3 °F 34.1 °F 26.6 °F 54% 30.07 in 10.0 mi West 17.3 mph 21.9 mph N/A   Scattered Clouds
8:32 PM 42.1 °F 34.5 °F 26.6 °F 54% 30.05 in 10.0 mi WSW 15.0 mph 21.9 mph N/A   Scattered Clouds
8:53 PM 42.4 °F 34.7 °F 26.4 °F 53% 30.05 in 10.0 mi WSW 16.1 mph 21.9 mph N/A   Scattered Clouds
9:12 PM 42.3 °F 34.1 °F 26.4 °F 54% 30.05 in 10.0 mi West 17.3 mph 23.0 mph N/A   Clear
9:33 PM 41.4 °F 34.0 °F 27.0 °F 57% 30.06 in 10.0 mi West 13.8 mph - N/A   Scattered Clouds
10:12 PM 41.0 °F 32.5 °F 27.1 °F 58% 30.06 in 10.0 mi West 17.3 mph - N/A   Mostly Cloudy
10:32 PM 41.5 °F 33.8 °F 26.4 °F 55% 30.05 in 10.0 mi West 15.0 mph 23.0 mph N/A   Scattered Clouds
10:52 PM 41.0 °F 32.8 °F 26.6 °F 57% 30.06 in 10.0 mi West 16.1 mph - N/A   Clear
11:12 PM 40.3 °F 32.6 °F 26.6 °F 58% 30.05 in 10.0 mi West 13.8 mph 20.7 mph N/A   Clear
11:32 PM 39.7 °F 31.9 °F 26.2 °F 59% 30.05 in 10.0 mi West 13.8 mph - N/A   Clear
11:52 PM 39.6 °F 31.7 °F 26.1 °F 58% 30.04 in 10.0 mi West 13.8 mph 19.6 mph N/A   Clear